#timestamp,LO_Frequency,Hit 
1499364015.7,286047000.6,N
1499364035.6,286047000.8,N
1499364055.4,286047000.7,N
1499364075.2,286047000.5,N
1499364095.1,286047000.3,N
1499364096.0,286047000.3,N
1499364115.8,286047002.2,N
1499364135.7,286047002.8,N
1499364155.5,286047002.1,N
1499364175.3,286047011.9,N
1499364195.2,286047002.5,N
1499364215.0,286047002.3,N
1499364215.9,286047002.3,N
1499364235.7,286047001.7,N
1499364255.6,286047002.1,N
1499364275.4,286047002.2,N
1499364295.3,286047002.5,N
1499364315.1,286047001.5,N
1499364335.8,286047002.1,N
1499364355.7,286047001.4,N
1499364375.5,286047001.4,N
1499364395.4,286047004.1,N
1499364415.2,286047002.9,N
1499364435.0,286047004.1,N
1499364435.9,286047004.1,N
1499364455.8,286047011.9,N
1499364475.6,286047004.8,N
1499364495.4,286047004.5,N
1499364515.3,286047005.0,N
1499364535.1,286047006.0,N
1499364555.9,286047005.5,N
1499364575.7,286047006.0,N
1499364595.5,286047003.3,N
1499364615.4,286047005.9,N
1499364635.2,286047005.8,N
1499364655.0,286047005.1,N
1499364655.9,286047005.1,N
1499364675.8,286047007.6,N
1499364695.6,286047007.0,N
1499364715.5,286047007.1,N
1499364735.3,286047007.6,N
1499364785.2,286047004.9,Y
1499364795.1,286047003.5,N
1499364796.0,286047003.5,N
1499364815.8,286047000.3,N
1499364835.7,286047000.3,N
1499364855.5,286047000.0,N
1499364875.3,286046999.7,N
1499364895.2,286047001.7,N
1499364915.0,286047001.4,N
1499364915.9,286047001.4,N
1499364935.8,286047002.3,N
1499364955.6,286046999.8,N
1499364975.4,286046999.9,N
1499364995.3,286047000.3,N
1499365015.1,286047000.5,N
1499365035.8,286047002.8,N
1499365055.7,286047002.3,N
1499365075.5,286047002.6,N
1499365095.4,286047002.7,N
1499365115.2,286047002.2,N
1499365135.0,286047000.2,N
1499365135.9,286047000.2,N
1499365155.8,286047000.4,N
1499365175.6,286047000.1,N
1499365195.4,286047002.7,N
1499365215.3,286047003.7,N
1499365235.1,286047004.1,N
1499365255.9,286047003.6,N
1499365275.7,286047004.4,N
1499365295.5,286047002.6,N
1499365315.4,286047002.4,N
1499365335.2,286047002.2,N
1499365355.1,286047002.8,N
1499365356.0,286047002.8,N
1499365375.8,286046999.7,N
1499365395.6,286046999.9,N
1499365415.5,286047002.7,N
1499365435.3,286047001.5,N
1499365455.1,286047003.8,N
1499365475.9,286047004.3,N
1499365495.7,286047004.0,N
1499365515.6,286047001.5,N
1499365535.4,286047001.6,N
1499365555.2,286047002.2,N
1499365575.1,286047001.3,N
1499365576.0,286047001.3,N
1499365595.8,286047004.3,N
1499365615.7,286047001.7,N
1499365635.5,286047004.0,N
1499365655.3,286047004.3,N
1499365675.2,286047003.8,N
1499365695.0,286047004.3,N
1499365695.9,286047004.3,N
1499365715.8,286047004.2,N
1499365735.6,286047004.4,N
1499365755.4,286047003.7,N
1499365775.3,286047004.4,N
1499365795.1,286047003.6,N
1499365815.8,286047001.3,N
1499365835.7,286047003.4,N
1499365855.5,286047005.7,N
1499365875.4,286047005.3,N
1499365895.2,286047006.0,N
1499365915.0,286047003.6,N
1499365915.9,286047003.6,N
1499365935.8,286047003.5,N
1499365955.6,286047004.3,N
1499365975.5,286047005.5,N
1499365995.3,286047003.5,N
1499366015.1,286047003.3,N
1499366035.9,286047003.3,N
1499366055.7,286047003.2,N
1499366075.5,286047005.5,N
1499366095.4,286047005.9,N
1499366115.2,286047003.3,N
1499366135.1,286047005.9,N
1499366136.0,286047005.9,N
1499366155.8,286047005.6,N
1499366175.6,286047005.9,N
1499366195.5,286047003.1,N
1499366215.3,286047002.9,N
1499366235.1,286047005.9,N
1499366255.9,286047005.2,N
1499366275.7,286047005.2,N
1499366295.6,286047005.9,N
1499366315.4,286047005.8,N
1499366335.2,286047003.1,N
1499366355.1,286047005.3,N
1499366356.0,286047005.3,N
1499366375.8,286047005.5,N
1499366395.6,286047007.2,N
1499366415.5,286047005.7,N
1499366435.3,286047005.1,N
1499366455.2,286047005.1,N
1499366475.9,286047005.4,N
1499366495.7,286047005.9,N
1499366515.6,286047005.9,N
1499366535.4,286047005.7,N
1499366555.2,286047005.5,N
1499366575.1,286047005.5,N
1499366576.0,286047005.5,N
1499366595.8,286047003.1,N
1499366615.7,286047006.0,N
1499366635.5,286047005.6,N
1499366655.3,286047005.9,N
1499366675.2,286047003.7,N
1499366695.0,286047003.1,N
1499366695.9,286047003.1,N
1499366715.8,286047005.5,N
1499366735.6,286047005.5,N
1499366755.4,286047003.2,N
1499366775.3,286047005.7,N
1499366795.1,286047003.2,N
1499366815.9,286047005.6,N
1499366835.7,286047005.9,N
1499366855.5,286047005.5,N
1499366875.4,286047002.9,N
1499366895.2,286047003.0,N
1499366915.0,286047005.5,N
1499366915.9,286047005.5,N
1499366935.8,286047005.2,N
1499366955.6,286047005.2,N
1499366975.4,286047004.8,N
1499366995.3,286047005.0,N
1499367015.1,286047004.8,N
1499367035.9,286047005.6,N
1499367055.7,286047005.5,N
1499367075.5,286047005.4,N
1499367095.4,286047002.9,N
1499367115.2,286047005.9,N
1499367135.1,286047005.7,N
1499367136.0,286047005.7,N
1499367155.8,286047005.1,N
1499367175.6,286047005.2,N
1499367195.5,286047012.8,Y
1499367215.3,286047017.9,Y
1499367235.2,286047022.9,Y
1499367255.9,286047022.4,Y
1499367275.7,286047021.7,Y
1499367295.6,286047015.8,Y
1499367315.4,286047015.1,Y
1499367335.3,286047011.7,N
1499367355.1,286047010.1,N
1499367375.8,286047009.2,N
1499367395.7,286047006.9,N
1499367415.5,286047005.2,N
1499367435.4,286047003.8,N
1499367455.2,286047004.3,N
1499367475.0,286047004.3,N
1499367475.9,286047004.3,N
1499367495.8,286047003.8,N
1499367515.6,286047004.4,N
1499367535.4,286047002.6,N
1499367555.3,286047002.2,N
1499367575.1,286047001.9,N
1499367595.9,286047000.3,N
